TimeEST,TemperatureF,Dew PointF,Humidity,Sea Level PressureIn,VisibilityMPH,Wind Direction,Wind SpeedMPH,Gust SpeedMPH,PrecipitationIn,Events,Conditions,WindDirDegrees,DateUTC
12:20 AM,32.0,32.0,100,30.35,7.0,Calm,Calm,-,N/A,,Clear,0,2012-11-16 05:20:00
12:40 AM,32.0,32.0,100,30.34,7.0,Calm,Calm,-,N/A,,Clear,0,2012-11-16 05:40:00
1:00 AM,32.0,32.0,100,30.34,7.0,Calm,Calm,-,N/A,,Clear,0,2012-11-16 06:00:00
1:20 AM,32.0,32.0,100,30.34,7.0,Calm,Calm,-,N/A,,Clear,0,2012-11-16 06:20:00
1:45 AM,32.0,32.0,100,30.34,5.0,Calm,Calm,-,N/A,,Clear,0,2012-11-16 06:45:00
2:05 AM,32.0,32.0,100,30.35,5.0,Calm,Calm,-,N/A,,Clear,0,2012-11-16 07:05:00
2:25 AM,32.0,32.0,100,30.34,5.0,Calm,Calm,-,N/A,,Clear,0,2012-11-16 07:25:00
2:45 AM,32.0,32.0,100,30.34,4.0,Calm,Calm,-,N/A,,Clear,0,2012-11-16 07:45:00
3:10 AM,32.0,32.0,100,30.34,5.0,Calm,Calm,-,N/A,,Clear,0,2012-11-16 08:10:00
3:30 AM,32.0,32.0,100,30.34,5.0,Calm,Calm,-,N/A,,Clear,0,2012-11-16 08:30:00
3:50 AM,32.0,32.0,100,30.33,5.0,Calm,Calm,-,N/A,,Clear,0,2012-11-16 08:50:00
4:10 AM,32.0,32.0,100,30.34,7.0,Calm,Calm,-,N/A,,Clear,0,2012-11-16 09:10:00
4:35 AM,32.0,32.0,100,30.34,5.0,Calm,Calm,-,N/A,,Clear,0,2012-11-16 09:35:00
4:55 AM,32.0,32.0,100,30.34,7.0,Calm,Calm,-,N/A,,Clear,0,2012-11-16 09:55:00
5:15 AM,32.0,32.0,100,30.35,5.0,Calm,Calm,-,N/A,,Clear,0,2012-11-16 10:15:00
5:35 AM,32.0,32.0,100,30.35,4.0,Calm,Calm,-,N/A,,Clear,0,2012-11-16 10:35:00
5:50 AM,32.0,32.0,100,30.35,5.0,Calm,Calm,-,N/A,,Clear,0,2012-11-16 10:50:00
6:45 AM,33.8,33.8,100,30.36,7.0,Calm,Calm,-,N/A,,Clear,0,2012-11-16 11:45:00
7:50 AM,33.8,33.8,100,30.36,7.0,Calm,Calm,-,N/A,,Clear,0,2012-11-16 12:50:00
8:51 AM,33.8,33.8,100,30.39,7.0,Calm,Calm,-,N/A,,Clear,0,2012-11-16 13:51:00
9:50 AM,46.4,37.4,71,30.40,10.0,Calm,Calm,-,N/A,,Clear,0,2012-11-16 14:50:00
10:50 AM,48.2,35.6,62,30.40,10.0,Variable,3.5,-,N/A,,Clear,0,2012-11-16 15:50:00
11:55 AM,51.8,33.8,50,30.38,10.0,NNE,6.9,-,N/A,,Clear,20,2012-11-16 16:55:00
12:45 PM,53.6,33.8,47,30.36,10.0,ENE,9.2,-,N/A,,Clear,60,2012-11-16 17:45:00
1:50 PM,53.6,33.8,47,30.35,10.0,ENE,4.6,-,N/A,,Clear,60,2012-11-16 18:50:00
2:49 PM,53.6,33.8,47,30.35,10.0,NNE,5.8,-,N/A,,Clear,30,2012-11-16 19:49:00
3:51 PM,53.6,33.8,47,30.36,10.0,NNE,5.8,-,N/A,,Clear,20,2012-11-16 20:51:00
4:49 PM,46.4,32.0,57,30.38,10.0,North,4.6,-,N/A,,Clear,10,2012-11-16 21:49:00
5:45 PM,39.2,30.2,70,30.40,10.0,Calm,Calm,-,N/A,,Clear,0,2012-11-16 22:45:00
6:54 PM,33.8,32.0,93,30.43,10.0,Calm,Calm,-,N/A,,Clear,0,2012-11-16 23:54:00
7:45 PM,32.0,30.2,93,30.44,10.0,Calm,Calm,-,N/A,,Clear,0,2012-11-17 00:45:00
8:10 PM,32.0,32.0,100,30.45,10.0,Calm,Calm,-,N/A,,Clear,0,2012-11-17 01:10:00
8:30 PM,32.0,32.0,100,30.45,10.0,Calm,Calm,-,N/A,,Clear,0,2012-11-17 01:30:00
8:50 PM,30.2,30.2,100,30.46,10.0,Calm,Calm,-,N/A,,Clear,0,2012-11-17 01:50:00
9:10 PM,32.0,32.0,100,30.46,10.0,Calm,Calm,-,N/A,,Clear,0,2012-11-17 02:10:00
9:35 PM,32.0,32.0,100,30.47,10.0,Calm,Calm,-,N/A,,Clear,0,2012-11-17 02:35:00
9:55 PM,30.2,30.2,100,30.48,10.0,Calm,Calm,-,N/A,,Clear,0,2012-11-17 02:55:00
10:15 PM,30.2,30.2,100,30.48,10.0,Calm,Calm,-,N/A,,Clear,0,2012-11-17 03:15:00
10:35 PM,30.2,30.2,100,30.48,10.0,Calm,Calm,-,N/A,,Clear,0,2012-11-17 03:35:00
11:00 PM,28.4,28.4,100,30.48,10.0,Calm,Calm,-,N/A,,Clear,0,2012-11-17 04:00:00
11:20 PM,30.2,30.2,100,30.48,7.0,Calm,Calm,-,N/A,,Clear,0,2012-11-17 04:20:00
11:40 PM,30.2,30.2,100,30.48,10.0,Calm,Calm,-,N/A,,Clear,0,2012-11-17 04:40:00